Volver al catálogo

NOAA 16 DEB

ActivoPO
NORAD 41668·DEBRIS·🇺🇸 United States

Lanzado Sep 21, 2000 desde Vandenberg Space Force Base

Loading…

Próximos Pases (próximas 24 horas)

TLE

ActualizadoSource: Space-Track

Época: Sep 12, 2026, 10:39 UTC

1 41668U 00055PH  26255.44418676  .00009339  00000-0  14232-2 0  9993
2 41668  98.9396 129.9913 0023602 146.3732 213.8977 14.73965767544762

Sigue NOAA 16 DEB en tiempo real con AllMySat

Download on the App Store